Weather History for Edinburgh Airport, United Kingdom

Change the Weather History Date:

Tuesday, September 6, 2011

  Actual Average Record
Temperature  
Mean Temperature 56 °F -  
Max Temperature 60 °F 60 °F 73 °F (1999)
Min Temperature 53 °F 46 °F 46 °F (2002)
Degree Days  
Heating Degree Days 8    
Growing Degree Days 6 (Base 50)    
Moisture  
Dew Point 51 °F    
Average Humidity 82    
Maximum Humidity 94    
Minimum Humidity 63    
Precipitation  
Precipitation 0.00 in 0.09 in - ()
Sea Level Pressure  
Sea Level Pressure 29.21 in    
Wind  
Wind Speed 16 mph ()    
Max Wind Speed 33 mph    
Max Gust Speed 44 mph    
Visibility 6.1 miles    
Events Rain    
Averages and records for this station are not official NWS values.
T = Trace of Precipitation, MM = Missing Value Source: Averaged Metar Reports

Daily Weather History Graph

Daily Weather History Graph

Search for Another Location

Airport:

Trip Planner

Search our weather history database for the weather conditions in past years. The results will help you decide how hot, cold, wet, or windy it might be!

Date:

Astronomy

Sep. 06, 2011 Rise Set
Actual Time 6:26 AM BST 7:55 PM BST
Civil Twilight 5:47 AM BST 8:34 PM BST
Nautical Twilight 4:59 AM BST 9:21 PM BST
Astronomical Twilight 4:05 AM BST 10:15 PM BST
Moon 5:10 PM BST (9/6) No Moon Set
Length of Visible Light 14h 46m
Length of Day
13h 29m
Waxing Gibbous, 68% of the Moon is Illuminated
Sep 6
Waxing Gibbous
Sep 12
Full
Sep 20
Last Quarter
Sep 27
New
Oct 4
First Quarter

Hourly Weather History & Observations

Time (BST) Temp. Dew Point Humidity Pressure Visibility Wind Dir Wind Speed Gust Speed Precip Events Conditions
12:20 AM 55.4 °F 50.0 °F 82% 29.44 in 6.2 mi South 6.9 mph - N/A   Mostly Cloudy
12:50 AM 55.4 °F 50.0 °F 82% 29.42 in 6.2 mi South 8.1 mph - N/A   Mostly Cloudy
1:20 AM 55.4 °F 51.8 °F 88% 29.39 in 6.2 mi SE 6.9 mph - N/A   Mostly Cloudy
1:50 AM 59.0 °F 53.6 °F 82% 29.36 in 6.2 mi SSW 17.3 mph - N/A   Mostly Cloudy
2:20 AM 59.0 °F 53.6 °F 82% 29.33 in 6.2 mi SSW 17.3 mph - N/A   Mostly Cloudy
2:50 AM 59.0 °F 53.6 °F 82% 29.30 in 6.2 mi SSW 16.1 mph - N/A   Mostly Cloudy
3:20 AM 60.8 °F 53.6 °F 77% 29.30 in 6.2 mi SSW 18.4 mph - N/A   Overcast
3:50 AM 59.0 °F 55.4 °F 88% 29.27 in 6.2 mi SSW 16.1 mph - N/A   Partly Cloudy
4:20 AM 60.8 °F 55.4 °F 82% 29.24 in 6.2 mi SSW 16.1 mph - N/A   Mostly Cloudy
4:50 AM 59.0 °F 55.4 °F 88% 29.24 in 3.7 mi SW 17.3 mph - N/A Rain Rain
5:20 AM 57.2 °F 55.4 °F 94% 29.24 in 6.2 mi SW 15.0 mph - N/A Rain Light Rain
5:50 AM 57.2 °F 55.4 °F 94% 29.21 in 6.2 mi WSW 9.2 mph - N/A Rain Light Rain
6:20 AM 55.4 °F 53.6 °F 94% 29.21 in 6.2 mi WSW 8.1 mph - N/A   Scattered Clouds
6:50 AM 55.4 °F 53.6 °F 94% 29.21 in 6.2 mi WSW 11.5 mph - N/A   Scattered Clouds
7:20 AM 55.4 °F 51.8 °F 88% 29.21 in 6.2 mi SW 16.1 mph - N/A   Partly Cloudy
7:50 AM 55.4 °F 51.8 °F 88% 29.18 in 6.2 mi SW 10.4 mph - N/A   Partly Cloudy
8:20 AM 57.2 °F 51.8 °F 82% 29.21 in 6.2 mi WSW 13.8 mph 25.3 mph N/A Rain Light Rain Showers
8:50 AM 53.6 °F 48.2 °F 82% 29.21 in 6.2 mi SW 18.4 mph - N/A   Partly Cloudy
9:20 AM 57.2 °F 50.0 °F 77% 29.21 in 6.2 mi WSW 17.3 mph - N/A   Scattered Clouds
9:50 AM 57.2 °F 50.0 °F 77% 29.21 in 6.2 mi WSW 18.4 mph - N/A   Scattered Clouds
10:20 AM 57.2 °F 50.0 °F 77% 29.18 in 6.2 mi SW 21.9 mph 33.4 mph N/A   Mostly Cloudy
10:50 AM 57.2 °F 50.0 °F 77% 29.18 in 6.2 mi SW 21.9 mph - N/A   Scattered Clouds
11:20 AM 59.0 °F 50.0 °F 72% 29.18 in 6.2 mi SW 25.3 mph 38.0 mph N/A   Scattered Clouds
11:50 AM 60.8 °F 50.0 °F 68% 29.18 in 6.2 mi SW 25.3 mph 38.0 mph N/A   Scattered Clouds
12:20 PM 59.0 °F 50.0 °F 72% 29.15 in 6.2 mi SW 28.8 mph - N/A   Scattered Clouds
12:50 PM 60.8 °F 50.0 °F 68% 29.15 in 6.2 mi WSW 31.1 mph - N/A Rain Light Rain
1:20 PM 59.0 °F 50.0 °F 72% 29.15 in 6.2 mi SW 27.6 mph - N/A Rain Light Rain
1:50 PM 59.0 °F 48.2 °F 67% 29.15 in 6.2 mi SW 28.8 mph 42.6 mph N/A Rain Light Rain
2:20 PM 60.8 °F 48.2 °F 63% 29.15 in 6.2 mi WSW 28.8 mph - N/A   Scattered Clouds
2:50 PM 59.0 °F 50.0 °F 72% 29.15 in 6.2 mi SW 26.5 mph 38.0 mph N/A Rain Light Rain
3:20 PM 60.8 °F 48.2 °F 63% 29.12 in 6.2 mi SW 33.4 mph - N/A Rain Light Rain
3:50 PM 57.2 °F 48.2 °F 72% 29.12 in 6.2 mi WSW 25.3 mph - N/A Rain Light Rain
4:20 PM 57.2 °F 51.8 °F 82% 29.12 in 6.2 mi SW 26.5 mph 40.3 mph N/A Rain Light Rain
4:50 PM 55.4 °F 50.0 °F 82% 29.12 in 6.2 mi SW 32.2 mph 43.7 mph N/A Rain Light Rain
5:20 PM 55.4 °F 51.8 °F 88% 29.12 in 5.0 mi SW 25.3 mph - N/A Rain Rain
5:50 PM 55.4 °F 51.8 °F 88% 29.12 in 6.2 mi SW 21.9 mph - N/A Rain Light Rain
6:20 PM 55.4 °F 51.8 °F 88% 29.12 in 6.2 mi WSW 24.2 mph - N/A   Mostly Cloudy
6:50 PM 55.4 °F 51.8 °F 88% 29.12 in 6.2 mi WSW 21.9 mph - N/A Rain Light Rain
7:20 PM 53.6 °F 51.8 °F 94% 29.12 in 6.2 mi WSW 24.2 mph 35.7 mph N/A Rain Light Rain
7:50 PM 55.4 °F 51.8 °F 88% 29.12 in 6.2 mi WSW 24.2 mph - N/A   Mostly Cloudy
8:20 PM 55.4 °F 50.0 °F 82% 29.15 in 6.2 mi WSW 24.2 mph - N/A   Scattered Clouds
8:50 PM 53.6 °F 51.8 °F 94% 29.15 in 6.2 mi WSW 23.0 mph - N/A   Scattered Clouds
9:20 PM 53.6 °F 51.8 °F 94% 29.18 in 6.2 mi WSW 20.7 mph - N/A   Scattered Clouds
9:50 PM 55.4 °F 50.0 °F 82% 29.21 in 6.2 mi WSW 18.4 mph 29.9 mph N/A Rain Light Rain
10:20 PM 55.4 °F 51.8 °F 88% 29.21 in 6.2 mi WSW 18.4 mph - N/A   Partly Cloudy
10:50 PM 55.4 °F 51.8 °F 88% 29.24 in 6.2 mi WSW 18.4 mph - N/A   Partly Cloudy
11:20 PM 55.4 °F 50.0 °F 82% 29.27 in 6.2 mi West 16.1 mph - N/A   Scattered Clouds
11:50 PM 55.4 °F 50.0 °F 82% 29.30 in 6.2 mi West 18.4 mph - N/A   Partly Cloudy